Location: Arlington
(40.6323°N, 74.1651°W)
Time: 13:28:40
(UTC+00:00)

NOAA 11 - Pass Details

Date: 22 February 2020
Orbit: 833 x 849 km, 98.4° (Epoch: 31 March)

Event Time Altitude Azimuth Distance (km) Brightness Sun altitude
Rises 00:32:50 0° 198° (SSW) 3,382 7.5 -22.4°
Reaches altitude 10° 00:35:36 10° 211° (SSW) 2,449 6.9 -22.9°
Maximum altitude 00:40:01 25° 266° (W) 1,626 6.4 -23.8°
Drops below altitude 10° 00:44:27 10° 321° (NW) 2,456 7.2 -24.6°
Sets 00:47:14 0° 334° (NNW) 3,393 7.8 -25.1°
